Volver al catálogo

SL-8 R/B

ActivoLEO
NORAD 16012·ROCKET BODY·🇷🇺 Russia

Lanzado Sep 4, 1985 desde Plesetsk Cosmodrome

Loading…

Próximos Pases (próximas 24 horas)

TLE

ActualizadoSource: Space-Track

Época: Sep 14, 2026, 20:16 UTC

1 16012U 85079B   26257.84500276  .00000227  00000-0  83843-4 0  9994
2 16012  74.0577  57.8214 0015148 200.4126 159.6424 14.37826798148440

Sigue SL-8 R/B en tiempo real con AllMySat

Download on the App Store